RH
70 77 74 77 78 87 86 86 87 84 83 84 82 80 86 82 67 68 77 85 78 86 77 79 88 90 89 87 81 75 79 77 75
71 77 75 81 87 86 86 85 82 87 88 85 84 86 80 87 78 67 75 82 81 90 75 79 80 80 77 77 79 75 76 73 73
83 78 83 88 86 87 86 88 88 85 84 84 82 86 82 85 91 71 69 73 82 83 77 77 79 79 77 73 78 75 75 73 74
81 85 89 93 91 82 81 83 83 90 90 88 87 85 85 84 93 87 72 68 78 90 85 77 79 80 78 76 73 78 75 73 72
74 79 83 90 94 91 82 78 79 83 82 89 91 86 83 83 88 92 84 65 66 92 88 83 74 77 78 78 77 74 77 77 74
74 68 68 72 76 88 94 86 92 82 81 82 87 85 77 78 81 88 79 68 75 80 85 84 81 76 78 78 80 79 74 76 77
76 76 75 76 71 71 69 75 82 83 92 93 85 87 82 79 77 76 52 65 89 78 80 84 83 81 78 80 77 79 80 76 74
76 74 72 73 72 71 67 67 72 76 85 87 87 76 74 68 62 58 47 41 78 84 75 78 81 80 78 76 81 77 78 79 78
72 74 73 73 68 67 67 66 66 69 71 77 81 81 76 70 67 60 52 51 36 65 77 74 71 76 78 79 78 81 76 76 78
66 67 64 65 67 67 68 71 74 75 77 76 79 77 76 74 72 68 62 58 57 51 61 66 68 65 68 75 80 79 83 80 75
70 67 63 62 66 70 73 76 80 86 90 88 88 78 78 73 73 74 69 64 62 61 64 70 64 67 66 64 72 76 81 86 84
72 70 67 67 68 72 75 75 77 78 83 88 85 84 84 83 79 77 75 73 70 66 64 74 79 72 67 66 63 66 72 80 85
75 73 70 68 70 73 75 80 85 88 85 84 84 86 86 80 76 75 72 70 69 69 68 68 68 78 77 70 67 63 63 65 74
74 74 75 77 81 84 88 91 95 92 91 92 91 89 89 86 83 82 79 72 68 71 69 65 66 69 75 79 74 69 67 66 67
91 91 92 92 91 94 97 99 97 96 93 92 91 93 90 87 86 85 83 81 78 76 76 72 76 71 70 75 84 82 78 75 71
56 56 56 55 77 86 91 94 93 92 94 100 95 85 82 82 81 80 82 82 74 81 82 80 76 75 70 68 70 86 85 83 83
38 37 37 38 48 56 64 73 78 80 80 91 91 87 69 63 79 79 80 81 80 82 82 82 81 81 79 76 67 65 68 82 84
37 36 36 36 39 55 62 68 71 68 62 66 78 79 78 79 63 67 69 76 81 83 84 85 84 84 84 81 76 73 71 70 81
38 36 36 39 48 58 63 62 68 67 65 65 56 71 75 70 71 43 56 57 63 71 69 77 80 81 84 82 81 78 75 77 88
32 28 28 32 46 53 56 59 64 68 73 72 72 72 70 67 72 80 58 65 60 62 65 67 70 76 81 84 83 83 80 84 94
Wind_Speed
3 3 6 4 5 5 6 6 8 7 8 9 8 9 8 10 11 10 8 11 11 9 11 11 12 12 11 10 9 8 9 8 9
6 8 4 4 6 6 7 7 8 10 11 10 11 12 13 11 12 13 12 13 13 12 12 12 13 12 11 11 10 9 9 9 10
9 9 6 6 7 7 8 8 9 10 11 12 13 14 13 15 13 15 14 15 15 13 13 14 13 13 12 12 12 11 11 11 11
6 6 7 8 8 9 10 10 10 11 11 12 13 15 16 15 15 16 16 15 17 16 16 16 16 16 15 15 15 14 14 14 14
15 13 13 11 10 11 11 12 13 13 13 13 14 16 17 16 17 17 18 19 18 18 19 19 19 19 19 19 17 17 17 17 17
12 12 12 13 14 13 13 13 14 16 17 18 18 19 15 16 17 18 21 22 21 20 21 22 22 22 22 21 21 20 20 20 20
15 15 14 14 14 15 15 16 16 16 15 16 19 18 19 19 19 20 24 24 22 24 24 24 25 25 25 24 24 24 24 23 23
17 17 16 16 15 16 17 17 18 19 18 19 19 21 21 21 23 25 26 26 25 26 27 28 28 28 29 29 28 27 27 27 27
18 17 17 18 18 19 19 20 21 22 22 23 24 24 24 25 26 27 27 26 28 28 29 30 31 31 31 32 34 33 33 32 32
17 18 19 19 20 21 22 23 24 25 24 25 26 27 28 28 29 31 33 29 30 31 31 32 33 34 35 35 37 37 38 37 36
19 19 20 21 22 23 24 24 24 23 22 25 24 28 28 31 31 32 34 36 34 34 34 32 34 35 36 38 39 40 40 41 41
20 21 22 23 23 24 24 24 24 25 24 25 26 25 26 27 29 30 32 33 37 37 38 36 36 37 38 39 41 43 43 42 43
20 22 23 24 24 24 23 22 22 22 24 25 28 27 25 28 29 28 29 31 33 36 37 38 39 39 39 40 41 44 45 46 45
17 19 20 21 21 21 20 19 17 20 20 20 24 23 25 26 27 27 28 31 35 35 36 39 38 38 39 41 43 45 47 48 49
10 12 14 15 16 16 15 16 16 18 21 23 25 25 25 25 25 27 27 27 29 31 31 33 31 36 37 37 39 42 46 48 49
15 14 14 15 14 14 14 14 15 17 16 17 16 17 23 25 22 24 24 25 30 29 29 31 31 31 36 38 37 37 39 43 48
18 18 18 18 16 16 16 15 15 15 17 13 19 6 14 20 17 22 26 27 28 26 29 29 29 31 30 34 39 39 39 38 39
18 18 18 17 17 16 16 14 13 14 16 14 9 6 6 12 22 23 28 25 22 24 26 27 28 28 30 34 39 41 42 44 40
20 20 20 19 18 18 17 17 17 16 16 18 11 19 20 8 12 15 24 27 24 25 29 28 28 29 29 33 38 41 44 45 39
21 21 21 21 19 19 19 20 20 16 16 15 18 19 18 18 10 15 11 26 25 27 29 30 29 27 28 31 34 37 39 40 39
Wind_Direction
279 255 273 268 278 269 273 269 268 271 274 274 278 273 290 272 268 268 265 230 240 251 253 246 246 246 245 245 243 231 223 229 221
263 238 280 273 267 267 269 277 278 269 277 283 278 284 283 274 279 266 254 246 249 258 253 252 250 251 247 242 241 231 227 223 222
250 236 259 270 271 273 272 275 278 280 282 278 277 279 280 282 278 272 269 259 249 253 253 250 253 251 253 248 245 239 233 230 227
262 262 269 273 282 288 289 286 289 282 279 282 281 278 279 274 275 276 269 266 257 258 262 257 254 255 256 251 245 243 238 234 232
267 270 275 275 280 283 289 283 285 287 288 283 282 282 281 273 272 273 267 265 265 262 259 261 256 254 254 253 250 247 244 241 239
275 276 281 280 281 284 286 283 287 290 290 285 289 290 282 280 274 271 272 269 264 263 257 258 260 255 253 253 251 249 246 244 242
270 275 278 285 282 283 282 281 281 280 279 285 289 287 287 282 276 272 274 270 265 262 260 258 257 259 255 252 252 250 249 247 245
269 273 279 284 289 290 289 286 284 284 282 282 284 288 289 285 281 278 278 273 266 263 261 258 257 258 256 254 251 250 249 248 247
271 278 286 288 292 291 291 291 289 288 288 285 284 286 286 284 283 282 280 274 269 261 258 257 256 256 255 253 250 248 247 247 247
280 285 288 290 293 292 294 295 294 294 293 289 287 289 289 287 285 284 285 280 274 269 259 255 254 253 253 252 251 250 247 243 242
286 292 294 295 297 301 300 297 296 295 293 292 289 291 290 290 287 284 284 285 280 276 269 260 256 255 254 252 252 252 253 248 243
291 295 299 303 307 307 305 304 301 299 297 292 295 293 291 288 288 285 283 283 284 281 276 266 259 257 255 254 252 251 252 253 247
302 301 303 308 310 309 307 303 300 297 297 297 298 294 289 287 284 282 280 281 281 281 279 274 268 258 255 254 254 252 251 252 252
304 304 309 312 309 309 308 305 299 300 299 294 296 292 285 283 283 277 275 276 278 276 278 282 280 273 264 255 254 253 252 251 250
325 324 324 325 325 323 322 316 312 299 302 302 299 297 292 287 281 280 281 278 278 279 276 278 275 280 279 268 258 256 255 254 253
47 39 28 17 6 356 352 339 329 322 319 298 301 288 287 283 282 282 280 281 285 279 274 274 275 275 279 279 274 260 256 255 254
43 35 28 19 10 7 4 360 344 326 330 313 306 304 308 291 302 298 286 286 283 280 277 274 272 273 272 272 283 280 271 262 259
32 26 20 13 11 5 359 355 354 331 327 332 312 312 306 318 299 296 289 288 290 289 285 281 279 276 273 275 281 284 283 277 263
21 16 12 8 4 1 356 349 346 343 333 332 320 312 306 311 307 295 303 292 297 297 296 291 286 282 276 277 280 285 286 283 272
15 12 8 6 2 357 352 348 345 341 330 324 318 313 313 306 307 307 315 300 296 293 289 287 291 289 281 274 274 279 287 284 277